Regional Weather Roundup
Issued by NWS Burlington, VT

Home | Current Version | Previous Version | Text Only | Print | Product List | Glossary On
Versions: 1 2 3 4 5 6 7 8 9 10 11 12 13 14 15 16 17 18 19 20 21 22 23 24 25 26 27 28 29 30 31 32 33 34 35 36 37 38 39 40 41 42 43 44 45 46 47 48 49 50
000
ASUS41 KBTV 271830
RWRBTV
VERMONT REGIONAL WEATHER ROUNDUP
NATIONAL WEATHER SERVICE BURLINGTON VT
200 PM EDT WED AUG 27 2014

NOTE: "FAIR" INDICATES FEW OR NO CLOUDS BELOW 12,000 FEET WITH NO
SIGNIFICANT WEATHER AND/OR OBSTRUCTIONS TO VISIBILITY.

* THESE REPORTS ARE NOT UNDER NWS QUALITY CONTROL AND/OR DO NOT
  REPORT WEATHER SUCH AS PRECIPITATION AND FOG.

VTZ001>019-271900-
_____VERMONT_____


CITY           SKY/WX    TMP DP  RH WIND       PRES   REMARKS
BURLINGTON     FAIR      83  63  50 N9        29.90F
6HR MIN TEMP:  73; 6HR MAX TEMP:  84;

MONTPELIER     FAIR      78  62  57 VRB3      29.96F
6HR MIN TEMP:  65; 6HR MAX TEMP:  79;

MORRISVILLE    FAIR      80  61  52 NW12      29.92F
6HR MIN TEMP:  70; 6HR MAX TEMP:  82;

ST. JOHNSBURY*   N/A     81  59  47 MISG      29.88F
6HR MIN TEMP:  61; 6HR MAX TEMP:  82;

MIDDLEBURY*    MOCLDY    84  65  51 W6        29.88F
RUTLAND*       CLOUDY    79  66  65 SW9       29.92F
6HR MIN TEMP:  68; 6HR MAX TEMP:  81;

SPRINGFIELD    MOCLDY    83  67  58 CALM      29.91F
6HR MIN TEMP:  62; 6HR MAX TEMP:  83;

HIGHGATE*      FAIR      79  61  54 NW7       29.90F
6HR MIN TEMP:  73; 6HR MAX TEMP:  79;

NEWPORT*       FAIR      76  61  59 NW10G16   29.93S
6HR MIN TEMP:  71; 6HR MAX TEMP:  78;

BENNINGTON     MOCLDY    80  68  66 W7        29.96S
6HR MIN TEMP:  66; 6HR MAX TEMP:  82;

GALLUP MILLS*    N/A      0 N/A N/A MISG        N/A
UNION VILLAGE*   N/A     82 N/A N/A MISG        N/A
MT. MANSFIELD*   N/A     63 N/A N/A NW17        N/A

_____LAKE CHAMPLAIN_____


CITY           SKY/WX    TMP DP  RH WIND       PRES   REMARKS
BURTON ISLAND*   N/A     81  63  54 N1          N/A
COLCHESTER RF*   N/A     75  64  69 E16         N/A
DIAMOND ISL*     N/A     79  66  65 N9          N/A

$$

NYZ007-026>031-035-052-083-271900-
_____NORTHERN NEW YORK_____


CITY           SKY/WX    TMP DP  RH WIND       PRES   REMARKS
PLATTSBURGH    FAIR      80  64  58 NE10      29.89F
6HR MIN TEMP:  71; 6HR MAX TEMP:  82;

SARANAC LAKE   FAIR      75  58  55 SW10      29.95F
6HR MIN TEMP:  65; 6HR MAX TEMP:  77;

MASSENA        FAIR      77  61  57 NW10      29.94F
6HR MIN TEMP:  68; 6HR MAX TEMP:  77;

OGDENSBURG*    PTCLDY    81  61  50 NW5       29.94F
POTSDAM*       PTCLDY    75  64  69 W6        29.95S
PARISHVILLE*     N/A     73 N/A N/A SW9         N/A
WATERTOWN      FAIR      74  59  59 W12       29.97F
6HR MIN TEMP:  72; 6HR MAX TEMP:  75;

FT DRUM        FAIR      76  53  44 W9        29.96F
6HR MIN TEMP:  70; 6HR MAX TEMP:  77;

ALBANY         CLOUDY    82  69  64 W7        29.94F
6HR MIN TEMP:  70; 6HR MAX TEMP:  83;

GLENS FALLS    CLOUDY    82  70  66 S14       29.90F
6HR MIN TEMP:  68; 6HR MAX TEMP:  82;


$$
NHZ002-005-011-271900-
_____NEW HAMPSHIRE_____


CITY           SKY/WX    TMP DP  RH WIND       PRES   REMARKS
LEBANON        FAIR      85  60  42 W9        29.89F
6HR MIN TEMP:  66; 6HR MAX TEMP:  87;

KEENE          FAIR      84  64  51 SW9G17    29.92F
6HR MIN TEMP:  64; 6HR MAX TEMP:  82;

MT WASHINGTON  MOCLDY    55  50  82 W28G35      N/A
6HR MIN TEMP:  50; 6HR MAX TEMP:  55;

PLYMOUTH       FAIR      84  69  61 W3        29.87F
6HR MIN TEMP:  58; 6HR MAX TEMP:  84;

WHITEFIELD     FAIR      81  61  50 SW8       29.91F
6HR MIN TEMP:  60; 6HR MAX TEMP:  82;


$$

_____REGIONAL QUEBEC LOCATIONS_____


CITY           SKY/WX    TMP DP  RH WIND       PRES   REMARKS
MONTREAL       MOCLDY    77  57  50 NW8G17    29.91F
QUEBEC CITY    MOCLDY    73  55  53 NW12G17   29.87S
SHERBROOKE     PTCLDY    77  61  57 NW14      29.89F

_____REGIONAL ONTARIO LOCATIONS_____


CITY           SKY/WX    TMP DP  RH WIND       PRES   REMARKS
OTTAWA         PTCLDY    75  57  53 W6        29.95F

______KEY______
VSB  - VISIBILITY IN MILES
WCI  - WIND CHILL INDEX
HX   - HEAT INDEX
$$
NNNN



USA.gov is the U.S. government's official web portal to all federal, state and local government web resources and services.